Grant County, OR

6:44 AM PDT on July 28, 2017 (GMT -0700)
Grant County Regional

Weather History for KGCD - March, 2013

Change the Weather History Date:

Saturday, March 23, 2013

  Actual Average (KBNO) Record (KBNO)
Temperature  
Mean Temperature 30 °F -  
Max Temperature 38 °F 51 °F 75 °F (1940)
Min Temperature 21 °F 26 °F 13 °F (2013)
Degree Days  
Heating Degree Days 36    
Moisture  
Dew Point 19 °F    
Average Humidity 68    
Maximum Humidity 94    
Minimum Humidity 37    
Precipitation  
Precipitation 0.00 in - - ()
Sea Level Pressure  
Sea Level Pressure 30.23 in    
Wind  
Wind Speed 3 mph (East)    
Max Wind Speed 9 mph    
Max Gust Speed -    
Visibility 10 miles    
Events Snow    
Averages and records for this station are not official NWS values.
T = Trace of Precipitation, MM = Missing Value Source: NWS Daily Summary

Daily Weather History Graph

Daily Weather History Graph

Search for Another Location

Airport or City:

Trip Planner

Search our weather history database for the weather conditions in past years. The results will help you decide how hot, cold, wet, or windy it might be!

Date:

Astronomy

Mar. 23, 2013 Rise Set
Actual Time 6:52 AM PDT 7:12 PM PDT
Civil Twilight 6:23 AM PDT 7:41 PM PDT
Nautical Twilight 5:49 AM PDT 8:15 PM PDT
Astronomical Twilight 5:14 AM PDT 8:51 PM PDT
Moon 3:37 PM PDT (3/23) 4:39 AM PDT (3/23)
Length of Visible Light 13h 17m
Length of Day
12h 19m
Waxing Gibbous, 86% of the Moon is Illuminated
Mar 23
Waxing Gibbous
Mar 27
Full
Apr 2
Last Quarter
Apr 10
New
Apr 18
First Quarter

Hourly Weather History & Observations

Time (PDT) Temp. Windchill Dew Point Humidity Pressure Visibility Wind Dir Wind Speed Gust Speed Precip Events Conditions
12:15 AM 27.5 °F - 24.6 °F 89% 30.23 in 4.0 mi Calm Calm - N/A Snow Light Snow
12:35 AM 26.6 °F - 24.3 °F 91% 30.24 in 5.0 mi Calm Calm - N/A Snow Light Snow
12:55 AM 26.6 °F - 24.8 °F 93% 30.24 in 10.0 mi Calm Calm - N/A   Overcast
1:15 AM 26.6 °F - 24.6 °F 92% 30.24 in 10.0 mi Calm Calm - N/A   Overcast
1:35 AM 26.8 °F - 23.5 °F 88% 30.24 in 10.0 mi Calm Calm - N/A   Mostly Cloudy
1:55 AM 25.9 °F - 23.0 °F 89% 30.24 in 10.0 mi Calm Calm - N/A   Scattered Clouds
2:15 AM 25.5 °F - 23.4 °F 92% 30.24 in 10.0 mi Calm Calm - N/A   Clear
2:35 AM 25.5 °F - 24.1 °F 94% 30.25 in 10.0 mi Calm Calm - N/A   Clear
2:55 AM 25.0 °F - 23.4 °F 94% 30.24 in 10.0 mi Calm Calm - N/A   Clear
3:15 AM 24.8 °F 20.5 °F 23.4 °F 94% 30.24 in 10.0 mi East 3.5 mph - N/A   Clear
3:35 AM 22.1 °F 13.7 °F 20.3 °F 93% 30.24 in 10.0 mi East 6.9 mph - N/A   Clear
3:55 AM 22.1 °F 15.9 °F 19.8 °F 91% 30.24 in 10.0 mi East 4.6 mph - N/A   Clear
4:15 AM 21.7 °F 14.3 °F 19.2 °F 90% 30.24 in 10.0 mi East 5.8 mph - N/A   Clear
4:35 AM 21.2 °F 13.6 °F 18.7 °F 90% 30.25 in 10.0 mi East 5.8 mph - N/A   Clear
4:55 AM 21.0 °F 12.4 °F 18.3 °F 89% 30.24 in 10.0 mi East 6.9 mph - N/A   Scattered Clouds
5:15 AM 21.0 °F 13.4 °F 18.7 °F 91% 30.24 in 10.0 mi ESE 5.8 mph - N/A   Scattered Clouds
5:35 AM 22.1 °F 15.9 °F 19.8 °F 91% 30.25 in 10.0 mi East 4.6 mph - N/A   Mostly Cloudy
5:55 AM 22.1 °F 13.7 °F 19.9 °F 91% 30.25 in 10.0 mi East 6.9 mph - N/A   Mostly Cloudy
6:15 AM 22.8 °F 15.5 °F 19.9 °F 89% 30.25 in 10.0 mi ESE 5.8 mph - N/A   Overcast
6:35 AM 23.0 °F 14.7 °F 19.4 °F 86% 30.26 in 10.0 mi ESE 6.9 mph - N/A   Mostly Cloudy
6:55 AM 23.0 °F 13.1 °F 19.8 °F 87% 30.26 in 10.0 mi ESE 9.2 mph - N/A   Scattered Clouds
7:15 AM 22.8 °F 15.5 °F 19.2 °F 86% 30.26 in 10.0 mi SE 5.8 mph - N/A   Clear
7:35 AM 23.5 °F 16.4 °F 19.2 °F 84% 30.26 in 10.0 mi SE 5.8 mph - N/A   Clear
7:55 AM 23.0 °F 15.8 °F 19.4 °F 86% 30.26 in 10.0 mi ESE 5.8 mph - N/A   Clear
8:15 AM 23.0 °F 15.8 °F 19.4 °F 86% 30.26 in 10.0 mi East 5.8 mph - N/A   Clear
8:35 AM 23.5 °F 16.4 °F 20.1 °F 87% 30.27 in 10.0 mi East 5.8 mph - N/A   Clear
8:55 AM 23.9 °F 16.8 °F 20.1 °F 85% 30.26 in 10.0 mi East 5.8 mph - N/A   Clear
9:15 AM 25.0 °F 18.1 °F 20.3 °F 82% 30.27 in 10.0 mi East 5.8 mph - N/A   Clear
9:35 AM 25.9 °F 18.2 °F 20.5 °F 80% 30.26 in 10.0 mi East 6.9 mph - N/A   Scattered Clouds
9:55 AM 27.1 °F 20.7 °F 21.4 °F 79% 30.27 in 10.0 mi East 5.8 mph - N/A   Scattered Clouds
10:15 AM 27.7 °F 21.3 °F 20.8 °F 75% 30.26 in 10.0 mi East 5.8 mph - N/A   Scattered Clouds
10:35 AM 28.8 °F 23.7 °F 21.7 °F 75% 30.26 in 10.0 mi ENE 4.6 mph - N/A   Scattered Clouds
10:55 AM 29.5 °F 25.9 °F 21.4 °F 72% 30.26 in 10.0 mi East 3.5 mph - N/A   Scattered Clouds
11:15 AM 30.4 °F 25.6 °F 21.6 °F 70% 30.26 in 10.0 mi East 4.6 mph - N/A   Scattered Clouds
11:35 AM 31.1 °F 25.4 °F 20.7 °F 65% 30.25 in 10.0 mi East 5.8 mph - N/A   Scattered Clouds
11:55 AM 32.0 °F 27.5 °F 20.8 °F 63% 30.25 in 10.0 mi ENE 4.6 mph - N/A   Scattered Clouds
12:15 PM 32.2 °F 27.7 °F 19.9 °F 61% 30.24 in 10.0 mi East 4.6 mph - N/A   Mostly Cloudy
12:35 PM 33.1 °F 28.7 °F 19.8 °F 58% 30.24 in 10.0 mi NE 4.6 mph - N/A   Mostly Cloudy
12:55 PM 34.0 °F 28.8 °F 19.2 °F 55% 30.23 in 10.0 mi East 5.8 mph - N/A   Mostly Cloudy
1:15 PM 34.7 °F 29.6 °F 19.6 °F 54% 30.23 in 10.0 mi ENE 5.8 mph - N/A   Mostly Cloudy
1:35 PM 34.7 °F 30.6 °F 17.1 °F 49% 30.23 in 10.0 mi NE 4.6 mph - N/A   Overcast
1:55 PM 34.5 °F 31.6 °F 14.7 °F 44% 30.23 in 10.0 mi North 3.5 mph - N/A   Overcast
2:15 PM 35.4 °F - 14.9 °F 43% 30.22 in 10.0 mi Calm Calm - N/A   Overcast
2:35 PM 35.8 °F 31.9 °F 13.5 °F 40% 30.22 in 10.0 mi North 4.6 mph - N/A   Overcast
2:55 PM 35.6 °F 32.8 °F 13.6 °F 41% 30.21 in 10.0 mi WNW 3.5 mph - N/A   Overcast
3:15 PM 36.0 °F - 13.5 °F 40% 30.21 in 10.0 mi Calm Calm - N/A   Overcast
3:35 PM 36.3 °F 33.7 °F 13.3 °F 39% 30.21 in 10.0 mi North 3.5 mph - N/A   Mostly Cloudy
3:55 PM 36.9 °F - 13.6 °F 39% 30.20 in 10.0 mi Calm Calm - N/A   Mostly Cloudy
4:15 PM 37.8 °F 35.3 °F 13.8 °F 38% 30.19 in 10.0 mi SSE 3.5 mph - N/A   Scattered Clouds
4:35 PM 36.9 °F - 13.1 °F 38% 30.19 in 10.0 mi Calm Calm - N/A   Clear
4:55 PM 37.2 °F - 13.3 °F 37% 30.19 in 10.0 mi Calm Calm - N/A   Clear
5:15 PM 38.1 °F - 14.4 °F 38% 30.18 in 10.0 mi Calm Calm - N/A   Clear
5:35 PM 38.1 °F 35.7 °F 14.2 °F 38% 30.18 in 10.0 mi ENE 3.5 mph - N/A   Clear
5:55 PM 38.1 °F 34.6 °F 14.0 °F 37% 30.17 in 10.0 mi NW 4.6 mph - N/A   Clear
6:15 PM 37.6 °F - 14.9 °F 40% 30.18 in 10.0 mi Calm Calm - N/A   Clear
6:35 PM 36.1 °F - 15.1 °F 42% 30.19 in 10.0 mi Calm Calm - N/A   Clear
6:55 PM 36.1 °F - 15.1 °F 42% 30.18 in 10.0 mi Calm Calm - N/A   Clear
7:15 PM 34.9 °F - 16.7 °F 48% 30.18 in 10.0 mi Calm Calm - N/A   Clear
7:35 PM 34.7 °F - 16.0 °F 46% 30.17 in 10.0 mi Calm Calm - N/A   Clear
7:55 PM 34.3 °F - 15.3 °F 46% 30.17 in 10.0 mi Calm Calm - N/A   Clear
8:15 PM 33.1 °F - 15.4 °F 48% 30.17 in 10.0 mi Calm Calm - N/A   Clear
8:35 PM 33.8 °F - 15.4 °F 47% 30.18 in 10.0 mi Calm Calm - N/A   Clear
8:55 PM 29.5 °F 21.8 °F 19.2 °F 66% 30.19 in 10.0 mi SE 8.1 mph - N/A   Clear
9:15 PM 30.9 °F 23.5 °F 18.3 °F 60% 30.19 in 10.0 mi East 8.1 mph - N/A   Clear
9:35 PM 30.2 °F 21.9 °F 18.0 °F 60% 30.19 in 10.0 mi East 9.2 mph - N/A   Clear
9:55 PM 28.9 °F 21.1 °F 18.7 °F 66% 30.20 in 10.0 mi East 8.1 mph - N/A   Clear
10:15 PM 28.4 °F 21.2 °F 18.5 °F 66% 30.20 in 10.0 mi East 6.9 mph - N/A   Clear
10:35 PM 28.4 °F 21.2 °F 19.0 °F 68% 30.21 in 10.0 mi ESE 6.9 mph - N/A   Clear
10:55 PM 27.7 °F 20.4 °F 18.5 °F 68% 30.21 in 10.0 mi ESE 6.9 mph - N/A   Clear
11:15 PM 28.6 °F 19.9 °F 18.5 °F 66% 30.21 in 10.0 mi ESE 9.2 mph - N/A   Clear
11:35 PM 27.0 °F 18.7 °F 18.7 °F 71% 30.21 in 10.0 mi ESE 8.1 mph - N/A   Clear
11:55 PM 26.1 °F 18.4 °F 18.3 °F 73% 30.20 in 10.0 mi ESE 6.9 mph - N/A   Clear